Location: Recife
(8.0585°S, 34.8848°W)
Time: 11:21:42
(UTC-03:00)

Altair - Pass Details

Date: 21 April 2026
Orbit: 1501 x 1682 km, 47.2° (Epoch: 20 May)

Event Time Altitude Azimuth Distance (km) Brightness Sun altitude
Rises 20:20:25 0° 315° (NW) 4,676 10.6 -46.1°
Reaches altitude 10° 20:23:29 10° 313° (NW) 3,678 9.9 -46.9°
Enters shadow 20:28:24 36° 305° (NW) 2,209 8.5 -48.1°
Maximum altitude 20:32:41 73° 230° (SW) 1,561 - -49.1°
Drops below altitude 10° 20:41:51 10° 145° (SE) 3,660 - -51.3°
Sets 20:44:54 0° 143° (SE) 4,652 - -52.1°
